Regional Weather Roundup
Issued by NWS Kansas City/Pleasant Hill, MO

Home | Current Version | Previous Version | Text Only | Print | Product List | Glossary On
Versions: 1 2 3 4 5 6 7 8 9 10 11 12 13 14 15 16 17 18 19 20 21 22 23 24 25 26 27 28 29 30 31 32 33 34 35 36 37 38 39 40 41 42 43 44 45 46 47 48 49 50
000
ASUS43 KEAX 241504
RWREAX

WEATHER ROUNDUP FOR EASTERN KANSAS AND NORTHWEST MISSOURI
NATIONAL WEATHER SERVICE KANSAS CITY/PLEASANT HILL MO
1000 AM CDT SUN MAY 24 2015

KSZ040-057-103>105-MOZ028-029-037-043-241600-
...KANSAS CITY METROPOLITAN AREA...

CITY           SKY/WX    TMP DP  RH WIND       PRES   REMARKS
K.C. INTL      CLOUDY    67  65  93 S9        29.88S
K.C. DOWNTOWN  CLOUDY    68  63  84 S8        29.88R
LEES SUMMIT    CLOUDY    66  63  90 S9        29.91R
OLATHE - IXD   CLOUDY    66  63  90 S13       29.91R
OLATHE - OJC   CLOUDY    66  63  90 S8        29.89S
LAWRENCE       PTSUNNY   68  62  81 S6        29.88S

$$

MOZ001>008-011>017-020>025-030>033-038>040-044>046-053-054-241600-
...NORTHERN AND CENTRAL MISSOURI...

CITY           SKY/WX    TMP DP  RH WIND       PRES   REMARKS
ST. JOSEPH     CLOUDY    68  64  87 SW7       29.86F
MOSBY          CLOUDY    66  64  94 SE5       29.88S
WARRENSBURG    CLOUDY    64  63  94 S9        29.91S
WHITEMAN AFB   CLOUDY    66  64  94 S13       29.90R
CLINTON        CLOUDY    72  68  88 S14       29.92S
SEDALIA        LGT RAIN  68  64  87 S13       29.93F
WARSAW         NOT AVBL
CHILLICOTHE      N/A     65  64  97 S5        29.91F
KIRKSVILLE     LGT RAIN  65  62  90 SE15G23   29.94F

$$

MOZ041-047>049-056>058-063>065-088>090-097-241600-
...EASTERN AND SOUTHERN MISSOURI...

CITY           SKY/WX    TMP DP  RH WIND       PRES   REMARKS
ST. LOUIS INTL PTSUNNY   76  61  59 SE18G24   30.05F
SPIRIT OF STL  MOSUNNY   75  64  68 S13       30.02F
COLUMBIA       CLOUDY    70  63  78 SE13      29.96F
JEFFERSON CITY CLOUDY    72  62  71 SE10      29.96F
ROLLA          CLOUDY    70  67  90 SE9       29.99F
OSAGE BEACH    CLOUDY    75  64  69 S8        29.96F
SPRINGFIELD    CLOUDY    72  67  84 SE15      29.93F
BRANSON        CLOUDY    72  66  83 S14G24    29.96F
JOPLIN         LGT RAIN  67  66  97 CALM      29.90F
WEST PLAINS    CLOUDY    70  65  84 S14       30.04F

$$

IAZ060-094-KSZ022-034>040-054-083-096-NEZ052-066-093-241600-
...KANSAS...SOUTHEAST NEBRASKA AND IOWA...

CITY           SKY/WX    TMP DP  RH WIND       PRES   REMARKS
TOPEKA         PTSUNNY   69  62  78 SW6       29.87S
MANHATTAN      CLOUDY    65  62  90 SW6       29.87R
EMPORIA        CLOUDY    63  61  93 S6        29.90R
CHANUTE        LGT RAIN  64  63  96 S3        29.92R
WICHITA        CLOUDY    63  60  90 SE7       29.90R
OMAHA          CLOUDY    63  61  93 SE7       29.84S
LINCOLN        CLOUDY    62  60  93 CALM      29.85S FOG
FALLS CITY     CLOUDY    66  63  90 SW7       29.83F
LAMONI         CLOUDY    63  60  90 SE15G23   29.88F FOG
DES MOINES     CLOUDY    62  59  90 SE14      29.90F FOG

$$



USA.gov is the U.S. government's official web portal to all federal, state and local government web resources and services.